Ionia, MI

1:06 PM EST on February 19, 2018 (GMT -0500)
Ionia

Weather History for KY70 - June, 2013

Change the Weather History Date:

Monday, June 24, 2013

  Actual Average (KGRR) Record (KGRR)
Temperature  
Mean Temperature 78 °F -  
Max Temperature 86 °F 80 °F 96 °F (1901)
Min Temperature 69 °F 57 °F 41 °F (1961)
Cooling Degree Days 12    
Growing Degree Days 28 (Base 50)    
Moisture  
Dew Point 67 °F    
Average Humidity 73    
Maximum Humidity 97    
Minimum Humidity 47    
Precipitation  
Precipitation 0.13 in - - ()
Sea Level Pressure  
Sea Level Pressure 29.99 in    
Wind  
Wind Speed 7 mph (SW)    
Max Wind Speed 32 mph    
Max Gust Speed 43 mph    
Visibility 10 miles    
Events Rain    
Averages and records for this station are not official NWS values.
T = Trace of Precipitation, MM = Missing Value Source: NWS Daily Summary

Daily Weather History Graph

Daily Weather History Graph

Search for Another Location

Airport or City:

Trip Planner

Search our weather history database for the weather conditions in past years. The results will help you decide how hot, cold, wet, or windy it might be!

Date:

Astronomy

Jun. 24, 2013 Rise Set
Actual Time 6:02 AM EDT 9:23 PM EDT
Civil Twilight 5:26 AM EDT 9:58 PM EDT
Nautical Twilight 4:41 AM EDT 10:44 PM EDT
Astronomical Twilight 3:44 AM EDT 11:41 PM EDT
Moon 10:21 PM EDT (6/24) 7:31 AM EDT (6/24)
Length of Visible Light 16h 31m
Length of Day
15h 20m
Full, 98% of the Moon is Illuminated
Jun 24
Full
Jun 30
Last Quarter
Jul 8
New
Jul 15
First Quarter
Jul 22
Full

Hourly Weather History & Observations

Time (EDT) Temp. Heat Index Dew Point Humidity Pressure Visibility Wind Dir Wind Speed Gust Speed Precip Events Conditions
12:14 AM 75.0 °F - 66.2 °F 74% 30.02 in 10.0 mi WSW 4.6 mph - N/A   Clear
12:34 AM 75.7 °F - 66.4 °F 73% 30.02 in 10.0 mi West 6.9 mph - N/A   Clear
12:54 AM 74.7 °F - 66.9 °F 77% 30.01 in 10.0 mi WSW 5.8 mph - N/A   Clear
1:14 AM 74.3 °F - 67.3 °F 79% 30.02 in 10.0 mi WSW 4.6 mph - N/A   Clear
1:34 AM 74.3 °F - 67.6 °F 80% 30.01 in 10.0 mi WSW 4.6 mph - N/A   Clear
1:54 AM 73.4 °F - 67.6 °F 82% 30.02 in 10.0 mi WSW 6.9 mph - N/A   Clear
2:14 AM 74.1 °F - 68.2 °F 82% 30.02 in 10.0 mi SW 8.1 mph - N/A   Clear
2:34 AM 74.3 °F - 67.6 °F 80% 30.02 in 10.0 mi WSW 8.1 mph - N/A   Clear
2:54 AM 74.3 °F - 66.7 °F 77% 30.02 in 10.0 mi WSW 9.2 mph - N/A   Clear
3:14 AM 74.3 °F - 66.4 °F 76% 30.02 in 10.0 mi SW 8.1 mph - N/A   Clear
3:34 AM 73.6 °F - 66.4 °F 78% 30.02 in 10.0 mi SW 6.9 mph - N/A   Clear
3:54 AM 72.9 °F - 66.2 °F 80% 30.02 in 10.0 mi SW 8.1 mph - N/A   Clear
4:14 AM 72.9 °F - 66.2 °F 80% 30.02 in 10.0 mi SW 5.8 mph - N/A   Clear
4:34 AM 72.7 °F - 66.0 °F 80% 30.02 in 10.0 mi SW 3.5 mph - N/A   Clear
4:54 AM 72.5 °F - 65.8 °F 80% 30.02 in 10.0 mi SW 4.6 mph - N/A   Clear
5:14 AM 71.8 °F - 65.7 °F 81% 30.01 in 10.0 mi SW 4.6 mph - N/A   Clear
5:34 AM 70.5 °F - 65.3 °F 83% 30.02 in 10.0 mi SW 4.6 mph - N/A   Clear
5:54 AM 71.2 °F - 65.5 °F 82% 30.02 in 10.0 mi Calm Calm - N/A   Scattered Clouds
6:14 AM 70.7 °F - 66.0 °F 85% 30.02 in 10.0 mi South 4.6 mph - N/A   Mostly Cloudy
6:34 AM 71.1 °F - 66.7 °F 86% 30.02 in 10.0 mi South 5.8 mph - N/A   Scattered Clouds
6:54 AM 71.1 °F - 67.1 °F 87% 30.02 in 7.0 mi South 4.6 mph - N/A   Clear
7:14 AM 71.6 °F - 67.3 °F 86% 30.02 in 7.0 mi SSW 5.8 mph - N/A   Clear
7:34 AM 72.5 °F - 67.3 °F 84% 30.03 in 10.0 mi SW 8.1 mph - N/A   Clear
7:54 AM 73.2 °F - 67.3 °F 82% 30.03 in 10.0 mi SSW 11.5 mph - N/A   Clear
8:14 AM 74.1 °F - 67.5 °F 80% 30.04 in 10.0 mi SSW 10.4 mph - N/A   Clear
8:34 AM 75.0 °F - 67.5 °F 77% 30.03 in 10.0 mi SW 9.2 mph - N/A   Clear
8:54 AM 76.3 °F - 68.0 °F 75% 30.04 in 10.0 mi WSW 11.5 mph - N/A   Scattered Clouds
9:14 AM 76.3 °F - 68.0 °F 75% 30.04 in 10.0 mi WSW 10.4 mph 18.4 mph N/A   Mostly Cloudy
9:34 AM 77.4 °F - 68.4 °F 74% 30.04 in 10.0 mi WSW 15.0 mph 19.6 mph N/A   Mostly Cloudy
9:54 AM 76.5 °F - 68.2 °F 75% 30.05 in 10.0 mi WSW 11.5 mph - N/A   Overcast
10:14 AM 78.6 °F - 69.3 °F 73% 30.04 in 10.0 mi SW 11.5 mph - N/A   Scattered Clouds
10:34 AM 79.7 °F - 69.1 °F 70% 30.04 in 10.0 mi WSW 15.0 mph - N/A   Scattered Clouds
10:54 AM 80.1 °F 82.7 °F 68.2 °F 67% 30.04 in 10.0 mi WSW 11.5 mph - N/A   Clear
11:14 AM 80.4 °F 83.0 °F 67.8 °F 65% 30.05 in 10.0 mi WSW 13.8 mph 20.7 mph N/A   Clear
11:34 AM 81.5 °F 84.2 °F 67.8 °F 63% 30.05 in 10.0 mi West 11.5 mph 21.9 mph N/A   Clear
11:54 AM 82.2 °F 84.9 °F 67.6 °F 61% 30.04 in 10.0 mi West 15.0 mph - N/A   Clear
12:14 PM 83.1 °F 86.1 °F 68.0 °F 60% 30.04 in 10.0 mi WSW 18.4 mph - N/A   Clear
12:34 PM 83.1 °F 86.1 °F 68.0 °F 60% 30.04 in 10.0 mi WSW 16.1 mph - N/A   Scattered Clouds
12:54 PM 82.6 °F 85.9 °F 68.9 °F 63% 30.04 in 10.0 mi WSW 16.1 mph 23.0 mph N/A   Mostly Cloudy
1:14 PM 83.3 °F 86.2 °F 67.8 °F 59% 30.04 in 10.0 mi West 12.7 mph 20.7 mph N/A   Mostly Cloudy
1:34 PM 83.1 °F 86.3 °F 68.2 °F 61% 30.03 in 10.0 mi West 12.7 mph 17.3 mph N/A   Mostly Cloudy
1:54 PM 84.0 °F 87.0 °F 67.6 °F 58% 30.03 in 10.0 mi West 12.7 mph - N/A   Mostly Cloudy
2:14 PM 84.2 °F 87.3 °F 67.8 °F 58% 30.02 in 10.0 mi West 10.4 mph - N/A   Scattered Clouds
2:34 PM 84.7 °F 87.1 °F 66.4 °F 54% 30.00 in 10.0 mi WNW 9.2 mph - N/A   Scattered Clouds
2:54 PM 84.7 °F 86.8 °F 65.7 °F 53% 29.98 in 10.0 mi West 4.6 mph - N/A   Clear
3:14 PM 84.2 °F 86.1 °F 65.5 °F 53% 29.98 in 10.0 mi SW 3.5 mph - N/A   Clear
3:34 PM 85.5 °F 87.4 °F 65.7 °F 51% 29.97 in 10.0 mi WNW 6.9 mph - N/A   Clear
3:54 PM 84.4 °F 86.6 °F 66.0 °F 54% 29.97 in 10.0 mi WSW 6.9 mph - N/A   Clear
4:14 PM 85.1 °F 86.9 °F 65.3 °F 51% 29.96 in 10.0 mi SSW 4.6 mph - N/A   Clear
4:34 PM 86.2 °F 87.3 °F 64.0 °F 47% 29.96 in 10.0 mi WSW 10.4 mph - N/A   Clear
4:54 PM 86.7 °F 88.7 °F 65.3 °F 49% 29.95 in 10.0 mi SW 9.2 mph - N/A   Scattered Clouds
5:14 PM 86.4 °F 87.8 °F 64.4 °F 48% 29.95 in 10.0 mi West 9.2 mph 16.1 mph N/A   Scattered Clouds
5:34 PM 85.8 °F 87.6 °F 65.5 °F 50% 29.95 in 10.0 mi WSW 11.5 mph - N/A   Mostly Cloudy
5:54 PM 84.7 °F 86.3 °F 64.8 °F 51% 29.95 in 10.0 mi WSW 9.2 mph - N/A   Mostly Cloudy
6:14 PM 85.6 °F 87.4 °F 65.3 °F 50% 29.94 in 10.0 mi West 8.1 mph - N/A   Mostly Cloudy
6:34 PM 84.9 °F 87.4 °F 66.6 °F 54% 29.95 in 10.0 mi WSW 8.1 mph - N/A   Scattered Clouds
6:54 PM 84.2 °F 86.8 °F 66.7 °F 56% 29.94 in 10.0 mi SSW 5.8 mph - N/A   Mostly Cloudy
7:14 PM 75.4 °F - 66.2 °F 73% 29.97 in 4.0 mi WNW 32.2 mph 42.6 mph 0.01 in Rain Heavy Rain
7:34 PM 71.2 °F - 65.8 °F 83% 29.97 in 10.0 mi NW 5.8 mph - 0.03 in Rain Light Rain
7:54 PM 71.8 °F - 68.0 °F 88% 29.98 in 5.0 mi SW 15.0 mph 20.7 mph 0.07 in Rain Heavy Rain
8:14 PM 70.5 °F - 67.5 °F 90% 29.95 in 4.0 mi Calm Calm - 0.06 in Rain Light Rain
8:34 PM 72.7 °F - 68.5 °F 87% 29.94 in 10.0 mi Calm Calm - 0.06 in   Overcast
8:54 PM 72.1 °F - 68.9 °F 89% 29.92 in 10.0 mi SSE 3.5 mph - 0.06 in   Mostly Cloudy
9:14 PM 71.2 °F - 69.3 °F 93% 29.92 in 10.0 mi Calm Calm - N/A   Mostly Cloudy
9:34 PM 71.2 °F - 69.3 °F 93% 29.92 in 10.0 mi SE 5.8 mph - N/A   Mostly Cloudy
9:54 PM 71.4 °F - 69.6 °F 94% 29.91 in 10.0 mi SE 4.6 mph - N/A   Mostly Cloudy
10:14 PM 70.7 °F - 69.3 °F 95% 29.90 in 10.0 mi SE 6.9 mph - N/A   Scattered Clouds
10:34 PM 69.8 °F - 68.5 °F 96% 29.90 in 10.0 mi ESE 5.8 mph - N/A   Clear
10:54 PM 69.8 °F - 68.4 °F 95% 29.90 in 10.0 mi Calm Calm - N/A   Clear
11:14 PM 69.3 °F - 68.4 °F 97% 29.90 in 10.0 mi SE 3.5 mph - N/A   Clear
11:34 PM 70.9 °F - 69.4 °F 95% 29.91 in 10.0 mi Calm Calm - N/A   Clear
11:54 PM 70.9 °F - 68.7 °F 93% 29.91 in 10.0 mi Calm Calm - N/A   Scattered Clouds